Wind_Speed
29 30 32 34 34 34 33 34 34 35 40 46 32 27 27 28 31 33 34 34 33 37 45 47 47 48 49 50 50 50 51 49 47 45 42 43 43 39 36 34 35 34 34 32 32
33 34 35 35 35 34 34 36 34 33 39 44 36 25 26 27 29 32 33 33 33 34 35 40 46 48 49 50 52 52 52 52 49 49 47 48 47 43 41 39 38 38 36 34 36
37 38 37 36 36 34 34 35 38 32 35 40 40 25 24 26 25 26 29 32 34 33 33 35 37 42 47 50 51 53 53 52 52 51 51 52 50 49 44 43 42 42 42 39 39
40 39 39 37 34 36 35 34 36 38 34 37 38 27 21 22 24 23 26 28 30 32 34 35 36 37 40 45 49 53 54 53 53 54 54 54 54 53 48 47 47 47 46 43 42
40 40 39 37 35 35 34 34 34 36 36 35 36 25 20 19 20 22 22 25 26 28 31 32 33 34 37 40 44 48 50 53 55 55 56 56 56 56 54 51 51 51 50 49 47
39 40 39 36 35 36 35 33 33 33 34 35 34 27 18 18 20 21 21 23 26 28 29 30 31 34 36 39 43 44 48 51 54 54 56 57 58 58 55 54 55 55 54 52 51
40 40 39 37 36 37 35 35 33 32 33 32 33 30 20 17 18 22 23 25 28 31 33 36 37 37 37 39 43 44 47 49 51 53 56 57 58 56 56 56 57 57 56 57 55
40 40 40 38 36 37 38 35 34 32 31 30 29 29 20 19 19 20 22 22 23 25 29 32 36 39 40 39 40 44 46 48 49 53 55 57 55 56 58 58 57 58 57 58 58
41 41 40 39 38 36 37 37 35 32 31 30 28 29 26 22 19 18 18 19 19 20 21 24 27 30 34 40 42 43 44 46 48 51 53 56 55 56 56 57 57 58 58 58 57
42 43 41 41 39 37 37 37 36 32 32 30 28 27 26 24 20 17 17 18 19 20 19 20 22 25 28 29 32 37 41 43 45 48 51 53 54 56 58 59 59 59 59 60 59
44 43 43 42 41 39 37 35 35 34 33 30 27 27 26 26 24 19 18 17 18 20 20 21 22 24 26 30 32 34 37 42 43 46 51 53 54 55 55 56 57 58 59 61 61
46 45 45 44 43 40 38 36 34 35 34 31 29 26 26 25 25 24 21 18 19 19 20 22 22 24 25 26 29 32 33 35 37 39 46 50 51 54 54 52 54 56 58 60 62
45 46 47 47 46 43 41 38 38 32 33 29 28 24 25 24 25 24 23 20 18 18 19 20 22 22 25 25 26 28 30 32 32 33 36 40 46 49 52 54 52 56 55 56 57
45 46 44 44 45 44 41 40 37 34 35 32 20 27 25 26 26 25 24 23 20 20 18 19 20 21 22 24 25 27 28 29 31 33 32 33 41 36 39 46 47 50 52 49 53
46 45 44 43 42 43 41 42 39 37 33 29 29 28 26 27 27 27 26 26 25 24 21 19 19 21 21 23 23 26 27 28 30 33 34 33 34 33 32 33 39 42 45 45 49
49 48 48 47 46 43 41 39 37 34 29 32 32 32 28 27 28 28 29 29 27 27 26 22 21 21 20 21 23 23 26 28 28 30 33 31 35 34 27 29 33 38 43 47 45
47 49 50 48 47 45 40 37 35 33 31 32 35 32 31 30 29 29 30 30 30 30 26 25 25 23 21 21 21 22 23 25 28 28 30 30 30 31 32 31 34 34 34 37 46
50 51 49 48 47 45 40 38 34 32 30 32 35 35 32 31 31 32 32 32 32 33 33 30 26 26 24 23 22 23 21 23 25 26 27 29 27 25 27 27 31 32 34 36 37
50 51 48 49 46 42 39 37 35 34 35 36 36 36 32 32 33 33 32 32 34 35 35 36 32 28 28 26 26 23 23 23 24 25 25 26 26 26 27 25 23 28 30 34 38
53 52 50 50 47 42 39 36 35 37 37 39 39 37 36 35 35 36 35 37 36 36 36 37 38 32 33 31 30 29 26 24 24 25 24 24 23 24 24 26 25 28 29 31 33
55 52 51 48 46 41 38 38 37 37 38 37 38 39 39 39 37 37 36 37 36 38 37 36 38 37 36 35 34 31 30 28 27 26 26 24 24 23 25 25 26 24 24 27 31
55 51 49 47 41 40 39 38 37 37 38 39 40 40 40 40 39 40 40 40 39 39 40 39 41 39 38 38 38 35 32 31 29 29 30 30 24 24 25 25 22 27 31 35 37
53 49 46 43 40 37 38 40 38 38 39 41 42 44 44 43 45 43 43 45 44 45 45 43 45 43 40 39 40 39 38 36 37 36 35 34 30 31 30 29 29 30 31 33 35
48 46 44 42 42 43 40 39 40 42 43 46 48 49 50 50 49 53 49 52 49 49 49 49 47 45 44 42 42 41 39 38 38 39 38 35 33 35 34 31 30 32 32 32 34
48 47 46 45 42 44 43 44 45 47 48 49 47 48 50 51 52 54 55 54 50 49 47 46 48 44 44 43 41 42 44 45 43 41 44 38 39 38 37 41 36 32 31 34 35
49 49 48 46 45 44 45 49 53 48 43 43 45 47 49 51 53 54 54 50 51 47 46 45 47 46 44 44 46 47 49 49 51 50 48 46 43 44 43 41 41 38 36 35 34
52 50 49 47 47 47 50 53 46 41 41 44 47 53 55 54 53 49 48 44 42 36 36 37 40 44 50 50 54 54 53 53 51 52 51 48 42 43 43 42 42 42 41 38 36
Wind_Direction
332 329 328 327 328 326 326 329 332 334 340 334 316 286 272 267 260 255 251 248 248 243 240 237 238 240 242 243 242 242 243 243 242 243 242 245 246 244 246 246 242 239 237 236 237
327 329 329 331 329 326 325 328 335 337 340 337 325 293 276 271 267 259 252 250 249 247 245 242 239 237 237 239 241 242 243 245 245 244 244 244 245 243 242 245 245 243 242 241 241
327 327 327 328 329 328 324 326 330 338 343 339 329 300 286 280 277 265 253 249 250 249 248 246 244 242 240 239 238 238 242 244 245 244 244 246 246 247 240 243 244 244 242 240 241
324 324 324 328 329 329 326 326 328 333 343 343 334 310 293 288 284 276 261 251 246 243 245 248 247 245 244 242 242 242 240 240 241 243 243 243 245 246 244 242 243 244 244 242 240
323 323 322 326 329 330 326 325 327 329 339 346 338 324 292 293 290 281 274 260 254 249 246 244 242 244 245 245 245 244 243 243 243 242 242 243 243 243 243 241 243 244 244 243 242
323 323 322 324 327 331 329 325 324 329 335 345 344 340 310 298 291 286 274 267 261 255 251 250 249 248 249 247 246 243 242 241 241 243 243 243 243 244 244 242 241 243 244 244 245
324 323 322 321 323 325 330 327 325 326 330 339 344 343 337 312 305 289 279 271 262 260 259 259 259 254 250 249 246 245 243 242 243 243 243 243 243 245 245 245 243 242 243 244 245
323 322 321 319 320 321 323 326 325 325 325 330 338 342 330 318 307 298 285 279 269 263 261 259 257 253 251 253 249 245 244 244 243 244 243 243 242 244 245 245 245 246 243 243 244
325 323 322 321 319 319 318 323 322 323 323 323 331 341 339 323 311 308 296 287 275 269 266 262 261 258 254 256 251 248 246 245 243 245 245 245 243 244 244 244 243 243 243 244 244
327 325 323 319 318 318 317 316 322 320 323 320 323 329 336 340 321 310 303 297 287 280 272 265 262 262 261 258 254 252 251 251 249 247 246 246 245 244 244 244 245 244 243 242 243
327 325 321 319 319 317 315 315 314 317 320 316 317 320 324 334 341 321 303 299 294 288 280 278 269 265 262 259 257 256 255 253 253 252 250 246 244 244 243 244 246 246 246 244 243
328 326 323 321 318 316 315 313 313 313 314 317 316 312 318 321 331 334 327 311 301 293 287 279 272 263 262 262 260 258 256 256 254 255 254 250 244 245 244 245 247 247 246 245 244
329 327 327 324 320 316 314 313 312 305 307 313 310 305 314 314 318 323 327 331 316 301 298 288 276 270 265 264 264 262 261 258 257 256 255 254 247 246 247 245 247 248 247 246 245
329 326 323 322 320 319 314 312 313 302 309 310 306 308 309 311 314 315 318 319 322 326 318 301 296 281 272 267 266 266 265 264 262 258 256 254 252 249 251 248 249 246 245 243 243
323 320 317 319 320 323 320 319 315 314 311 309 301 307 305 307 307 309 312 312 313 317 316 316 314 295 288 278 271 268 268 267 265 263 257 256 258 246 248 245 248 243 245 248 246
322 321 322 323 323 325 323 321 319 317 308 303 308 308 301 299 301 303 306 307 308 308 307 309 312 307 302 292 284 279 273 268 267 266 263 261 258 253 250 249 247 243 242 243 242
326 331 329 327 328 327 326 322 317 314 311 306 310 313 304 297 296 298 298 299 301 302 302 302 303 304 302 301 296 289 284 278 271 265 264 264 258 261 259 252 249 247 243 242 242
333 331 330 329 330 330 328 324 320 315 309 306 309 312 304 301 293 290 290 291 292 294 294 296 296 295 293 294 293 297 291 284 279 277 269 263 261 256 259 251 246 244 243 241 239
334 332 332 331 332 332 329 326 323 320 315 312 309 307 302 298 301 296 292 290 289 287 287 288 291 292 292 292 292 289 290 287 281 275 274 272 272 265 258 254 251 247 242 238 236
333 330 330 328 331 332 329 327 324 320 318 315 313 310 305 303 303 301 299 296 294 293 290 288 286 285 285 286 285 287 285 281 280 278 272 271 270 267 265 262 259 254 249 245 240
334 331 331 330 332 331 332 328 324 320 318 318 315 312 309 305 303 299 296 294 292 290 287 285 284 284 283 279 278 278 278 276 274 275 274 269 267 267 265 258 253 245 237 238 240
334 334 334 336 337 334 334 334 330 327 324 324 320 317 312 309 306 301 296 293 290 288 287 286 284 282 279 276 274 271 267 268 266 266 266 267 267 271 269 270 264 252 247 244 242
337 339 341 342 340 338 336 333 332 331 327 323 319 315 311 306 301 297 293 289 288 287 285 284 280 279 277 274 272 268 266 261 259 260 260 261 267 272 268 264 260 257 256 253 252
343 344 344 342 339 339 339 336 334 329 324 319 315 310 305 301 298 294 289 286 285 283 281 279 277 277 274 273 271 267 266 264 262 262 262 259 258 265 268 265 260 255 257 256 257
345 345 343 341 340 340 340 337 332 327 323 319 318 314 311 306 299 291 287 285 284 280 279 277 273 268 266 265 264 264 265 266 266 264 263 263 261 263 258 258 262 265 261 260 260
344 344 343 342 341 342 340 337 333 333 334 337 336 332 323 314 306 301 294 289 281 273 270 266 267 267 262 263 264 263 263 264 266 267 268 268 266 260 260 257 257 257 260 261 264
343 344 341 343 342 344 342 339 339 343 346 348 346 344 337 326 319 309 298 295 289 284 278 273 270 268 265 263 264 266 266 268 269 271 269 269 267 265 261 257 254 255 256 257 261
Height
5774 5768 5762 5756 5750 5744 5737 5731 5723 5716 5709 5700 5690 5685 5684 5684 5684 5685 5687 5688 5690 5693 5695 5698 5700 5702 5706 5709 5712 5715 5718 5721 5725 5728 5734 5736 5738 5743 5747 5751 5753 5757 5760 5760 5763
5768 5763 5757 5751 5744 5737 5731 5724 5718 5710 5702 5692 5682 5677 5675 5675 5676 5674 5677 5679 5680 5683 5685 5687 5690 5692 5695 5698 5700 5703 5708 5711 5717 5720 5724 5726 5729 5735 5739 5742 5746 5749 5752 5755 5756
5764 5757 5751 5745 5738 5731 5724 5718 5711 5705 5697 5687 5676 5670 5668 5667 5667 5666 5667 5669 5672 5673 5676 5678 5679 5682 5684 5687 5690 5692 5697 5701 5705 5710 5713 5716 5720 5723 5731 5733 5738 5739 5742 5746 5749
5759 5752 5745 5738 5731 5724 5717 5711 5705 5698 5691 5682 5672 5664 5662 5661 5660 5658 5659 5660 5662 5665 5666 5668 5670 5672 5674 5676 5679 5682 5686 5691 5693 5696 5701 5705 5710 5713 5720 5725 5727 5729 5732 5737 5741
5753 5746 5739 5733 5726 5718 5711 5704 5698 5692 5685 5677 5668 5659 5657 5657 5655 5654 5653 5653 5654 5656 5657 5659 5661 5663 5665 5668 5670 5671 5677 5680 5681 5684 5688 5691 5696 5701 5706 5713 5715 5717 5721 5725 5730
5747 5740 5733 5726 5720 5713 5706 5699 5693 5687 5681 5673 5664 5656 5652 5652 5650 5649 5648 5647 5647 5647 5649 5650 5651 5654 5656 5659 5658 5662 5665 5667 5669 5673 5675 5679 5683 5687 5695 5701 5704 5706 5709 5713 5718
5741 5734 5727 5721 5715 5709 5702 5695 5688 5681 5675 5669 5661 5654 5649 5648 5644 5643 5641 5640 5640 5639 5640 5641 5642 5644 5645 5645 5648 5651 5653 5656 5659 5661 5664 5666 5671 5678 5680 5685 5691 5694 5697 5701 5706
5735 5728 5721 5715 5709 5703 5697 5690 5684 5677 5672 5666 5660 5651 5646 5643 5640 5638 5635 5633 5632 5631 5631 5630 5630 5632 5634 5634 5636 5638 5642 5644 5648 5648 5650 5653 5663 5664 5668 5673 5676 5680 5685 5690 5694
5730 5723 5715 5708 5702 5696 5690 5684 5678 5672 5666 5661 5656 5649 5643 5639 5636 5633 5630 5629 5627 5625 5624 5623 5622 5622 5623 5624 5625 5627 5630 5631 5634 5635 5638 5641 5649 5651 5655 5658 5662 5667 5672 5676 5681
5724 5716 5708 5702 5695 5689 5684 5678 5673 5667 5661 5656 5651 5648 5642 5636 5630 5628 5625 5623 5622 5620 5618 5617 5616 5616 5615 5615 5615 5616 5618 5619 5622 5625 5626 5629 5634 5636 5640 5644 5648 5653 5658 5663 5667
5717 5709 5702 5694 5688 5682 5677 5672 5669 5663 5657 5652 5647 5642 5638 5633 5628 5624 5621 5618 5616 5614 5612 5609 5609 5608 5607 5607 5607 5607 5608 5608 5610 5611 5613 5616 5620 5622 5625 5630 5635 5641 5645 5650 5654
5711 5703 5695 5687 5681 5675 5669 5664 5659 5655 5651 5645 5641 5637 5633 5629 5625 5621 5617 5614 5611 5609 5606 5605 5602 5600 5599 5599 5598 5598 5598 5598 5599 5598 5599 5600 5608 5609 5614 5620 5622 5625 5629 5635 5639
5704 5695 5688 5680 5673 5666 5661 5656 5651 5647 5644 5639 5634 5631 5628 5625 5621 5616 5613 5609 5606 5603 5601 5598 5596 5593 5592 5591 5589 5590 5589 5589 5589 5588 5588 5589 5595 5597 5601 5605 5607 5611 5616 5621 5627
5697 5688 5679 5671 5665 5658 5652 5647 5643 5638 5635 5633 5628 5624 5621 5616 5614 5611 5607 5606 5602 5598 5595 5593 5589 5587 5585 5583 5582 5581 5580 5580 5579 5579 5579 5581 5582 5587 5589 5592 5595 5598 5602 5606 5612
5689 5680 5671 5662 5656 5651 5646 5639 5634 5630 5627 5626 5621 5617 5613 5611 5607 5604 5601 5598 5595 5592 5591 5588 5584 5581 5578 5576 5574 5573 5572 5571 5570 5569 5570 5573 5571 5576 5580 5582 5583 5586 5589 5592 5597
5682 5673 5666 5658 5650 5644 5637 5632 5627 5625 5620 5617 5612 5608 5606 5603 5599 5596 5593 5590 5588 5586 5584 5580 5578 5576 5573 5570 5568 5566 5564 5563 5562 5562 5562 5564 5563 5564 5570 5570 5571 5574 5576 5578 5582
5675 5668 5660 5651 5645 5637 5631 5625 5621 5616 5612 5609 5604 5601 5597 5594 5592 5589 5586 5583 5581 5578 5576 5574 5571 5568 5566 5564 5562 5559 5557 5555 5555 5554 5554 5554 5556 5558 5557 5559 5561 5563 5565 5567 5570
5671 5662 5653 5645 5637 5631 5625 5619 5613 5609 5605 5601 5597 5593 5589 5586 5583 5581 5578 5575 5572 5569 5566 5565 5565 5561 5559 5557 5555 5552 5551 5549 5545 5545 5546 5546 5547 5548 5547 5549 5550 5553 5555 5558 5560
5665 5656 5646 5638 5630 5624 5618 5612 5606 5602 5598 5593 5589 5584 5581 5578 5574 5571 5568 5565 5562 5560 5558 5554 5554 5552 5550 5548 5547 5545 5543 5542 5539 5538 5537 5538 5539 5540 5539 5540 5542 5544 5545 5548 5550
5659 5649 5641 5632 5624 5618 5612 5605 5599 5594 5589 5585 5580 5576 5571 5568 5565 5560 5557 5553 5551 5548 5546 5544 5542 5543 5541 5539 5537 5536 5536 5535 5532 5531 5531 5530 5530 5531 5532 5533 5534 5535 5537 5539 5541
5652 5642 5633 5624 5617 5610 5605 5599 5593 5587 5582 5577 5572 5567 5562 5557 5554 5549 5546 5543 5539 5535 5534 5532 5531 5532 5530 5528 5526 5526 5525 5524 5524 5524 5522 5522 5524 5524 5524 5525 5526 5527 5528 5529 5531
5645 5635 5626 5617 5612 5604 5598 5592 5587 5580 5574 5568 5563 5557 5552 5546 5544 5538 5533 5529 5526 5524 5521 5520 5517 5517 5518 5516 5514 5513 5513 5513 5513 5514 5513 5513 5517 5515 5515 5516 5516 5516 5518 5520 5522
5639 5629 5620 5612 5605 5599 5592 5586 5579 5573 5566 5560 5553 5546 5541 5535 5529 5525 5520 5515 5513 5509 5506 5505 5501 5501 5504 5504 5502 5501 5500 5500 5499 5500 5502 5503 5507 5504 5505 5506 5507 5507 5507 5509 5511
5634 5624 5616 5608 5600 5593 5586 5580 5572 5565 5558 5549 5541 5534 5526 5521 5515 5505 5504 5497 5498 5493 5489 5486 5486 5487 5488 5488 5486 5487 5487 5486 5486 5488 5490 5493 5494 5492 5492 5494 5495 5497 5498 5500 5500
5627 5618 5610 5602 5595 5587 5579 5572 5564 5556 5548 5536 5529 5519 5511 5501 5494 5488 5483 5477 5476 5472 5471 5466 5465 5468 5470 5470 5471 5471 5471 5470 5472 5475 5473 5482 5482 5480 5481 5481 5485 5487 5487 5487 5489
5623 5614 5604 5595 5588 5580 5573 5563 5552 5543 5534 5525 5516 5507 5497 5485 5475 5466 5459 5456 5451 5452 5450 5449 5447 5449 5452 5454 5453 5455 5454 5456 5457 5458 5462 5463 5470 5463 5468 5472 5474 5476 5477 5478 5479
5618 5609 5599 5592 5582 5573 5564 5553 5542 5534 5527 5518 5508 5498 5486 5473 5460 5449 5438 5434 5429 5430 5430 5429 5428 5428 5430 5435 5436 5438 5438 5440 5442 5442 5445 5448 5450 5452 5455 5458 5462 5463 5466 5468 5469